{"data":{"norad_id":61858,"epoch":"2026-09-21T07:03:52.322112Z","epoch_age_seconds":119939,"freshness":"FRESH","line1":"1 61858U 24202P   26264.29435558 -.00000002  00000+0  94409-5 0  9992","line2":"2 61858  43.0003 213.2458 0000773 272.0112  88.0651 15.27574831105251","mean_motion":15.27574831,"eccentricity":7.73e-5,"inclination_deg":43.0003,"raan_deg":213.2458,"arg_perigee_deg":272.0112,"mean_anomaly_deg":88.0651,"bstar":9.4409e-6,"rev_number":10525,"period_min":94.267067693,"perigee_km":482.53420304717,"apogee_km":483.5949448105,"semimajor_km":6861.2015739288,"source":"CELESTRAK","updated_at":"2026-09-22T09:00:49.442323Z"}}